Home   Weather   Columbus Park   Past weeks
Flag for USA

Past Weather in Columbus Park, Wisconsin, USA — Yesterday and Last 2 Weeks

Now
32 °F

Light rain. Low clouds.


Feels Like: 26 °F
Forecast: 34 / 33 °F
Wind: 7 mph from Northeast

Location: West Bend Municipal Airport

Current Time: Jan 24, 2020 at 8:36:24 am

Latest Report: Jan 24, 2020 at 7:55 am


Visibility: 1 mi

Pressure: 29.93 "Hg

Humidity: 100%

Dew Point: 32 °F

Location of Columbus ParkLocation

Past Weather in Columbus Park — Graph

°F

Columbus Park Temperature Yesterday

Maximum temperature yesterday: 32 °F (at 12:15 am)
Minimum temperature yesterday: 28 °F (at 2:15 am)
Average temperature yesterday: 31 °F

High & Low Weather Summary for the Past Weeks

 TemperatureHumidityPressure
High48 °F (Jan 9, 6:35 pm)100% (Jan 9, 12:15 pm)30.81 "Hg (Jan 9, 12:15 pm)
Low1 °F (Jan 17, 1:35 am)56% (Jan 16, 12:15 pm)29.58 "Hg (Jan 18, 11:15 am)
Average25 °F88%30.18 "Hg
* Reported Jan 9 7:35 am — Jan 24 7:15 am, Columbus Park. Weather by CustomWeather, © 2020

Note: Actual official high and low records may vary slightly from our data, if they occured in-between our weather recording intervals... More about our weather records

Columbus Park Weather History for the Previous 24 Hours

Scroll right to see more
 ConditionsComfort  
Time TempWeatherWind HumidityBarometerVisibility
7:15 am
Fri, Jan 24
32 °FLight snow. Low clouds.8 mph100%29.93 "Hg2 mi
6:55 am32 °FLight snow. Low clouds.9 mph100%29.94 "Hg2 mi
6:35 am32 °FLight rain. Low clouds.8 mph100%29.94 "Hg2 mi
5:55 am32 °FLight snow. Low clouds.9 mph100%29.94 "Hg2 mi
5:35 am32 °FLight snow. Low clouds.9 mph100%29.94 "Hg2 mi
5:15 am32 °FLight snow. Low clouds.10 mph100%29.95 "Hg1 mi
4:55 am32 °FLight snow. Low clouds.9 mph100%29.95 "Hg2 mi
4:35 am32 °FLight rain. Low clouds.8 mph100%29.95 "Hg2 mi
4:15 am32 °FLight snow. Low clouds.8 mph100%29.95 "Hg2 mi
3:55 am32 °FLight snow. Low clouds.8 mph100%29.96 "Hg1 mi
3:35 am32 °FLight snow. Low clouds.8 mph100%29.97 "Hg1 mi
3:15 am32 °FLight snow. Low clouds.8 mph100%29.97 "Hg2 mi
2:55 am32 °FLight snow. Low clouds.7 mph100%29.98 "Hg2 mi
2:15 am32 °FLight rain. Low clouds.7 mph100%29.99 "Hg3 mi
1:55 am32 °FDrizzle. Low clouds.7 mph100%30.00 "Hg3 mi
1:35 am32 °FDrizzle. Low clouds.6 mph100%30.00 "Hg3 mi
1:15 am32 °FRain. Low clouds.6 mph100%30.00 "Hg2 mi
12:55 am32 °FIce fog.5 mph100%30.01 "Hg2 mi
12:35 am32 °FLight snow. Low clouds.5 mph100%30.01 "Hg2 mi
12:15 am32 °FLight snow. Low clouds.5 mph100%30.01 "Hg2 mi
11:55 pm
Thu, Jan 23
32 °FLight snow. Low clouds.No wind100%30.02 "Hg4 mi
11:35 pm32 °FLight snow. Low clouds.3 mph100%30.02 "Hg2 mi
11:15 pm32 °FLight snow. Low clouds.5 mph100%30.03 "Hg2 mi
10:55 pm32 °FLight snow. Low clouds.3 mph100%30.03 "Hg2 mi
10:35 pm32 °FLight snow. Low clouds.3 mph100%30.03 "Hg1 mi
10:15 pm32 °FLight snow. Low clouds.3 mph100%30.03 "Hg1 mi
9:55 pm32 °FLight snow. Low clouds.3 mph100%30.03 "Hg1 mi
9:35 pm32 °FLight snow. Low clouds.3 mph100%30.03 "Hg2 mi
9:15 pm32 °FLight snow. Low clouds.3 mph100%30.03 "Hg2 mi
8:35 pm32 °FLight snow. Mostly cloudy.No wind100%30.03 "Hg2 mi
8:15 pm32 °FLight snow. Low clouds.3 mph100%30.03 "Hg2 mi
7:55 pm32 °FIce fog.3 mph100%30.03 "Hg4 mi
7:35 pm32 °FLight snow. Mostly cloudy.No wind100%30.04 "Hg3 mi
6:55 pm30 °FLight snow. Overcast.3 mph100%30.04 "Hg4 mi
6:35 pm32 °FOvercast.3 mph100%30.04 "Hg7 mi
6:15 pm32 °FMostly cloudy.No wind100%30.04 "Hg7 mi
5:55 pm32 °FMostly cloudy.3 mph100%30.04 "Hg7 mi
5:35 pm32 °FMostly cloudy.3 mph100%30.04 "Hg10 mi
5:15 pm32 °FMostly cloudy.3 mph100%30.04 "Hg10 mi
4:55 pm32 °FOvercast.No wind100%30.03 "Hg10 mi
4:35 pm32 °FLight rain. Overcast.3 mph100%30.03 "Hg10 mi
4:15 pm32 °FLight rain. More clouds than sun.3 mph100%30.03 "Hg7 mi
3:55 pm32 °FLight snow. Overcast.5 mph100%30.03 "Hg7 mi
3:35 pm32 °FLight snow. Overcast.6 mph100%30.03 "Hg5 mi
3:15 pm32 °FLight snow. Overcast.5 mph100%30.03 "Hg4 mi
2:55 pm32 °FLight snow. More clouds than sun.5 mph100%30.02 "Hg2 mi
2:35 pm32 °FLight snow. More clouds than sun.5 mph100%30.02 "Hg2 mi
2:15 pm32 °FLight snow. Overcast.3 mph100%30.02 "Hg3 mi
1:55 pm32 °FLight snow. Overcast.3 mph100%30.02 "Hg3 mi
1:35 pm32 °FLight snow. Low clouds.No wind100%30.02 "Hg2 mi
1:15 pm32 °FLight snow. Mostly cloudy.3 mph100%30.02 "Hg3 mi
12:55 pm32 °FLight snow. Overcast.No wind93%30.02 "Hg2 mi
12:35 pm32 °FLight snow. Low clouds.3 mph93%30.03 "Hg2 mi
12:15 pm32 °FLight snow. Overcast.3 mph93%30.04 "Hg2 mi
11:55 am32 °FLight snow. Low clouds.3 mph93%30.04 "Hg2 mi
11:35 am32 °FLight snow. Low clouds.No wind93%30.04 "Hg2 mi
11:15 am32 °FLight snow. Low clouds.No wind93%30.05 "Hg2 mi
10:55 am32 °FLight snow. Low clouds.No wind93%30.05 "Hg2 mi
10:35 am30 °FLight snow. Low clouds.No wind100%30.06 "Hg2 mi
10:15 am30 °FLight snow. Low clouds.3 mph100%30.06 "Hg1 mi
9:35 am30 °FLight snow. Low clouds.No wind100%30.05 "Hg1 mi
9:15 am30 °FLight snow. Low clouds.No wind100%30.05 "Hg2 mi
8:35 am30 °FLight snow. Mostly cloudy.No wind93%30.05 "Hg3 mi
8:15 am28 °FLight snow. Mostly cloudy.No wind100%30.05 "Hg2 mi
Weather by CustomWeather, © 2020

See weather overview

Advertising